sat.trackr.live / text

‹ back to catalog

STARLINK-36116

NORAD 66948 · 2025-286Z

PAYLOAD ACTIVE UNKNOWN

§ Identity

Operator
Country
US
Launch date
2025-12-07
Launch site
AFWTR
Launch vehicle
Mass (kg)
RCS (m²)

Purposes: comms

External: N2YO · Heavens-Above · Gunter

§ Orbital elements

Epoch: 2026-05-25T04:00:03.998880Z

Period
93.85 min
Inclination
53.1597°
Eccentricity
0.0001117
Mean motion
15.34383086 rev/d
Perigee alt
462.0 km
Apogee alt
463.5 km
Semi-major
6,840.9 km
B*
3.6542e-4
RAAN
3.1919°
Arg perigee
84.1403°
Mean anomaly
5.4135°
Rev number
586

§ Raw data

STARLINK-361161 66948U 25286Z   26145.16671295  .00011983  00000+0  36542-3 0  99952 66948  53.1597   3.1919 0001117  84.1403   5.4135 15.34383086  5866

JSON: /api/v1/satellites/66948 · /tle

For live sub-satellite position, see the globe view (requires WebGL).

§ Visibility from observer

Set your observer location to see the next 7 days of passes ≥ 10°. The values pass through the URL so the page stays shareable.

No JS? Fill the form by hand. The geolocation button needs JavaScript.